Location: Granada
(37.1830°N, 3.6000°W)
Time: 08:51:23
(UTC+02:00)

Iridium 70 - Visible Passes

Search period start: 27 April 2018 00:00
Search period end: 07 May 2018 00:00
Orbit: 776 x 779 km, 86.4° (Epoch: 26 April)

Date Brightness Start Highest point End Pass type
(mag) Time Alt. Az. Time Alt. Az. Time Alt. Az.
27 Apr 7.6 04:53:10 10° NNE 04:57:22 24° E 05:01:33 10° SE visible
27 Apr 6.2 06:33:27 10° NNW 06:38:06 33° W 06:42:43 10° SSW visible
28 Apr 8.3 04:21:15 10° NE 04:23:33 13° ENE 04:25:49 10° E visible
28 Apr 5.5 05:59:33 10° N 06:04:43 64° W 06:09:51 10° S visible
29 Apr 5.8 05:26:01 10° N 05:31:13 67° E 05:36:24 10° S visible
30 Apr 6.9 04:52:50 10° NNE 04:57:36 35° E 05:02:20 10° SSE visible
30 Apr 6.7 06:34:02 10° NNW 06:38:04 23° W 06:42:05 10° SW visible
01 May 7.9 04:20:12 10° NNE 04:23:51 19° ENE 04:27:30 10° ESE visible
01 May 5.9 05:59:51 10° NNW 06:04:45 43° W 06:08:46 15° SSW visible
02 May 5.4 05:26:06 10° N 05:31:20 83° W 05:34:49 22° S visible
03 May 6.2 04:52:42 10° N 04:57:48 52° E 05:00:55 23° SSE visible
03 May 7.2 06:34:58 10° NW 06:37:59 16° W 06:41:01 10° WSW visible
04 May 7.3 04:19:42 10° NNE 04:24:08 27° E 04:27:04 17° SE visible
04 May 6.4 06:00:18 10° NNW 06:04:45 29° W 06:07:30 19° SW visible
05 May 8.1 03:47:27 10° NE 03:50:20 15° ENE 03:53:12 10° ESE visible
05 May 5.6 05:26:18 10° NNW 05:31:24 56° W 05:33:41 31° SSW visible
06 May 5.6 04:52:42 10° N 04:57:56 77° E 04:59:53 39° SSE visible
06 May 7.5 06:37:13 10° WNW 06:37:52 10° WNW 06:38:32 10° W visible
